Theta_e
290 290 290 290 290 291 291 290 290 290 290 290 290 290 290 290 290 290 290 290 290 290 291 291 291 291 291 291 291 291 291 291 290 290 290 290 290 290 289 289 289 288 288 288 288 288 288 288 288 287 287 287 287 287 287 287 287 287 287 287 287 287 288 287 287 287 287 287 287 287 287 287 287 287 287 287 288 288 288 288 288 289 289 290 290 290
290 290 290 290 290 290 291 290 290 290 290 290 290 290 290 290 290 290 290 290 291 291 291 291 291 291 291 291 291 290 290 290 290 290 290 290 289 289 289 288 288 288 288 288 288 287 288 287 287 287 287 287 287 287 286 286 286 286 287 287 287 287 287 287 287 286 286 286 286 286 286 286 287 287 287 287 288 288 288 288 289 289 289 289 290 290
290 290 290 290 290 290 290 290 290 290 289 289 290 290 290 290 290 290 290 291 291 291 291 291 291 291 290 290 290 290 290 290 290 290 289 289 289 289 288 288 288 288 288 287 287 287 287 287 287 287 287 287 287 286 286 286 286 286 286 286 286 286 286 286 286 286 286 286 286 286 286 286 286 287 287 287 288 288 288 288 289 289 289 289 289 289
290 290 290 290 290 290 290 290 289 289 289 289 289 289 290 290 290 290 290 290 290 290 290 290 290 290 290 290 290 290 290 290 289 289 289 289 289 289 288 288 288 288 288 287 287 287 287 287 287 287 287 287 286 286 286 286 286 286 286 286 286 286 286 286 286 286 286 286 286 286 286 286 287 287 287 287 287 287 288 288 288 289 289 289 290 290
290 290 290 290 290 290 290 289 289 289 289 289 289 290 290 290 290 290 290 290 290 290 290 290 290 289 289 289 289 289 289 289 289 289 289 289 289 289 288 288 288 288 288 287 287 287 287 287 287 287 287 286 286 286 286 286 286 286 286 286 286 286 286 286 286 286 286 286 286 287 287 287 287 287 287 287 287 287 287 288 288 289 289 290 290 291
289 289 289 289 289 289 289 289 289 289 289 289 289 289 289 289 289 289 289 289 289 289 289 289 289 289 289 289 289 289 289 289 289 289 289 289 289 289 288 288 288 288 288 287 287 287 287 286 286 286 286 286 286 286 286 286 285 286 286 286 286 286 286 286 286 286 286 286 287 287 288 288 288 288 288 288 288 288 288 288 288 288 288 289 290 291
289 289 289 289 289 289 289 289 289 289 288 288 288 288 288 288 288 288 289 289 289 289 289 289 289 289 289 289 289 289 289 289 289 289 289 289 289 288 288 288 288 288 287 287 287 287 287 286 286 286 286 286 286 286 285 285 285 285 285 286 286 286 286 286 286 286 286 286 287 288 288 289 289 289 289 289 289 288 288 288 288 289 289 290 290 291
289 289 289 289 289 289 289 289 288 288 287 287 287 287 288 288 288 288 288 288 288 288 289 289 289 289 289 289 289 289 289 289 289 289 288 288 288 288 288 288 287 287 287 287 287 287 286 286 286 285 285 285 285 285 285 285 285 285 285 285 286 286 286 286 286 286 286 286 287 288 288 289 289 289 290 289 289 289 289 289 289 289 290 290 290 291
288 288 288 288 288 288 288 288 287 287 287 287 287 287 287 287 287 288 288 288 288 288 288 288 288 288 288 289 289 288 288 288 288 288 288 287 287 287 287 287 287 287 287 287 287 287 286 286 286 285 285 285 285 285 285 285 285 285 285 285 285 285 285 285 285 285 286 286 287 287 288 288 289 290 290 290 290 290 290 290 290 290 290 291 291 291
288 288 288 288 287 287 287 287 287 287 286 286 286 286 287 287 287 287 287 287 287 288 288 288 288 288 288 288 288 288 288 287 287 287 287 287 287 287 287 287 287 287 287 287 287 286 286 286 285 285 285 285 285 285 285 285 285 285 285 285 285 285 285 285 285 285 286 286 286 287 287 288 289 289 290 290 290 290 290 290 290 290 290 291 291 291
287 287 287 287 287 287 287 286 286 286 286 286 286 287 287 287 287 287 287 287 287 287 287 287 287 287 288 288 287 287 287 287 287 287 287 287 287 287 287 287 287 287 287 287 287 286 286 286 285 285 285 285 285 284 284 285 285 285 285 285 285 285 285 285 285 285 285 286 286 287 287 288 288 289 290 290 290 290 290 290 290 290 290 290 290 291
286 287 287 287 287 287 286 286 286 286 286 286 286 286 286 286 286 286 286 286 287 287 287 287 287 287 287 287 287 287 286 286 286 286 286 286 286 286 287 287 287 287 287 286 286 286 286 286 285 285 285 285 284 284 284 284 284 285 285 285 285 285 285 285 285 285 285 285 286 286 287 288 288 289 289 289 290 290 290 290 290 290 289 289 290 290
286 286 286 286 286 286 286 286 286 286 286 286 286 286 286 286 286 286 286 286 286 286 286 286 286 286 286 287 286 286 286 286 286 286 286 286 286 286 286 286 286 286 286 286 286 286 286 286 285 285 285 285 284 284 284 284 284 284 285 285 285 285 285 285 285 285 285 285 285 286 286 287 288 288 289 289 289 290 290 290 290 290 289 289 290 290
286 286 285 285 285 285 285 285 285 285 285 285 285 286 286 286 286 286 286 286 286 286 286 286 286 286 286 286 286 286 286 286 286 286 286 286 286 286 286 286 286 286 286 286 286 286 286 285 285 285 285 285 284 284 284 284 284 284 284 284 285 285 285 285 285 284 285 285 285 286 286 287 287 288 289 289 289 289 290 290 290 290 289 289 289 290
285 285 285 285 285 285 285 285 285 285 285 285 285 286 285 286 285 286 286 286 286 286 286 286 286 286 286 286 286 286 285 285 286 286 286 286 286 286 286 286 286 286 286 286 286 286 285 285 285 285 285 285 285 284 284 284 284 284 284 284 284 284 284 284 284 284 285 285 286 286 286 287 287 288 288 289 289 289 289 289 289 289 289 289 289 289
285 285 285 285 285 285 285 285 285 285 285 285 285 285 285 286 286 286 286 286 286 286 286 285 286 286 286 286 286 286 285 285 285 285 286 286 286 286 286 286 286 286 286 285 285 285 285 285 285 285 285 285 284 284 284 284 284 284 284 284 284 284 284 284 284 285 285 285 286 286 286 287 287 287 288 288 289 289 289 289 289 288 288 289 289 289
285 285 285 285 285 285 285 285 285 285 285 285 285 285 285 286 285 285 286 286 285 285 285 285 285 285 285 286 286 286 285 285 285 285 285 286 286 286 286 285 285 285 285 285 285 285 285 285 285 285 285 285 284 284 284 284 284 284 284 284 284 284 284 284 285 285 285 286 286 286 286 287 287 287 287 288 288 288 288 288 288 288 288 288 288 288
285 285 285 285 285 285 285 285 285 285 285 285 285 285 285 285 285 285 285 285 285 285 285 285 285 285 285 285 285 286 285 285 285 285 285 285 286 286 285 285 285 285 285 285 285 285 285 285 285 285 285 284 284 284 284 284 284 284 284 284 284 284 284 285 285 285 286 286 286 286 286 287 287 287 287 287 288 288 288 287 287 287 287 287 288 288
285 285 285 285 285 285 285 285 285 285 285 285 285 285 285 285 285 285 285 285 285 285 285 284 285 285 285 285 285 286 285 285 285 285 285 285 285 285 285 285 285 285 285 285 285 285 285 285 285 284 284 284 284 284 284 284 284 284 284 284 284 284 284 285 285 285 285 286 286 286 286 286 286 287 287 287 287 287 287 286 286 286 287 287 287 288
285 285 285 285 285 285 285 285 285 285 285 285 285 285 285 285 285 285 285 285 285 285 284 284 284 284 284 285 285 285 285 285 284 284 285 285 285 285 285 285 285 285 285 285 285 285 285 285 284 284 284 284 284 284 284 284 284 284 284 284 284 284 285 285 285 285 285 285 285 285 286 286 286 286 287 287 287 286 286 286 286 286 286 286 287 288
285 285 285 285 285 285 285 285 285 285 285 285 285 285 285 285 285 285 285 284 284 284 284 284 284 284 284 284 285 285 285 285 284 284 284 284 284 285 285 285 284 285 285 285 285 285 285 284 284 284 284 284 284 284 284 284 284 284 284 284 284 284 284 285 285 285 285 285 286 286 286 286 286 286 286 286 286 286 286 286 286 286 286 287 287 288
285 285 285 285 285 285 285 285 285 284 284 284 284 284 284 285 285 284 285 284 284 284 284 284 284 285 285 284 285 285 285 284 284 284 284 284 284 284 284 284 284 284 284 284 284 284 284 284 284 284 284 284 284 284 284 284 284 284 284 284 284 284 284 285 285 285 285 285 286 286 286 286 286 286 286 286 286 286 286 286 287 287 287 287 287 288
285 285 285 285 285 285 285 284 284 284 284 284 284 284 284 284 284 284 284 284 284 284 284 285 285 285 285 285 285 285 285 284 284 283 283 284 284 284 284 284 284 284 284 284 284 284 284 284 284 284 284 284 284 284 284 284 284 284 284 284 284 284 284 285 285 285 285 286 286 286 286 286 287 287 287 287 287 287 287 287 287 287 287 287 287 287
285 285 285 285 285 285 284 284 284 284 284 284 284 284 285 285 285 285 285 285 284 285 285 285 285 285 285 285 284 284 284 284 284 283 283 283 283 283 283 283 283 283 284 284 284 284 284 284 284 284 284 284 284 284 284 284 284 284 284 284 284 284 284 285 285 285 286 286 286 286 287 287 287 287 287 287 288 288 288 287 287 287 287 287 287 287
285 285 285 285 285 285 285 285 285 284 284 284 285 285 285 285 285 285 285 285 285 285 285 285 284 284 285 284 284 284 284 284 283 283 283 282 282 283 283 283 283 283 284 284 283 283 283 283 283 284 284 284 284 284 284 284 284 284 284 284 284 284 284 285 285 286 286 286 286 286 287 287 287 287 287 288 288 288 288 288 287 287 287 287 287 287
286 286 286 286 286 285 285 285 285 285 285 285 285 285 285 285 285 285 285 285 285 285 284 284 284 284 284 284 284 284 284 283 283 283 282 282 282 282 283 283 283 283 283 283 283 283 283 283 283 283 284 284 284 284 284 284 284 284 284 284 284 284 285 285 286 286 286 286 286 286 286 286 287 287 287 287 288 288 288 288 287 287 287 287 287 287
287 286 286 286 286 286 286 286 286 286 286 286 286 285 285 285 285 285 286 285 285 285 284 284 283 283 284 284 284 284 283 283 283 283 282 282 282 282 282 282 282 282 283 283 283 283 283 283 283 283 283 283 284 284 284 284 284 284 284 284 285 285 285 286 286 286 286 286 286 286 286 286 286 287 287 288 288 288 288 288 287 287 287 287 287 287
287 287 287 286 287 287 287 287 287 287 287 286 286 286 286 286 285 285 285 285 285 284 284 283 283 283 283 283 284 284 283 283 283 282 282 282 282 282 282 282 282 282 282 282 282 283 283 282 282 283 283 283 283 284 284 284 284 285 285 285 285 285 286 286 286 286 286 286 286 286 286 286 286 287 287 288 288 288 288 288 287 287 287 287 287 287
287 287 287 287 287 287 287 287 287 287 287 287 286 286 286 286 286 285 285 285 285 284 284 283 283 283 283 283 283 283 283 283 283 282 282 282 281 281 282 282 282 281 281 281 281 282 283 283 282 282 282 282 283 283 284 284 285 285 285 285 286 286 286 286 286 286 286 286 286 286 286 286 286 287 287 288 288 288 288 287 287 287 287 287 287 287
287 287 287 287 287 287 287 287 287 287 287 286 286 286 286 286 286 285 285 285 285 284 284 283 283 283 282 282 282 282 283 283 283 282 282 281 281 281 281 281 281 281 281 280 280 281 282 283 283 282 282 282 283 283 284 285 285 285 285 286 286 286 286 286 286 286 286 286 286 286 286 286 286 287 287 288 288 288 288 288 287 287 287 287 287 287
288 288 288 288 287 287 287 287 287 287 287 287 286 286 286 286 286 286 285 285 284 284 283 283 283 283 282 281 281 281 282 283 283 283 282 281 281 281 281 281 280 280 280 280 280 280 281 282 283 283 282 282 283 283 284 285 285 285 285 286 286 286 286 286 286 286 286 286 286 286 286 286 286 287 287 287 288 288 288 288 288 287 287 287 287 287
288 288 288 288 287 287 287 287 287 287 287 287 286 286 286 286 285 285 285 285 284 284 283 283 283 283 283 282 281 281 282 283 283 283 282 281 281 280 280 280 280 280 280 279 279 280 280 280 282 283 283 283 283 283 284 284 285 285 285 285 286 286 286 286 286 286 286 286 286 286 286 286 286 287 287 287 287 287 288 288 288 288 288 288 288 288
288 288 288 287 287 288 288 288 287 287 287 287 286 286 286 286 285 285 285 285 284 284 283 283 283 283 283 282 282 283 283 283 283 283 282 281 280 280 280 280 279 279 279 279 279 279 279 280 280 281 282 282 283 283 283 284 284 285 285 285 285 286 286 286 286 286 286 286 286 286 286 286 286 286 287 287 287 287 287 287 287 288 288 288 288 288
288 288 288 288 288 288 288 288 288 287 287 287 287 286 286 286 286 285 285 285 284 284 284 283 283 283 283 283 283 283 284 284 284 283 282 281 280 280 280 280 279 279 279 279 279 279 279 280 280 280 281 282 283 283 283 283 284 284 284 284 285 285 286 286 286 286 286 286 286 286 286 286 286 286 287 287 287 287 287 287 287 288 288 288 288 288
288 288 288 288 288 288 288 288 288 287 287 287 287 286 286 286 286 286 285 285 285 284 284 284 284 284 283 283 283 283 284 284 284 283 282 281 280 280 280 280 280 279 279 279 279 279 279 280 280 280 280 281 282 283 283 283 283 283 284 284 284 285 285 285 286 286 286 286 286 286 286 286 286 286 286 286 287 287 287 287 287 288 288 288 288 289
288 288 288 288 288 288 288 288 288 287 287 287 287 287 286 286 286 286 286 285 285 285 285 284 284 284 284 284 283 283 284 284 284 283 282 282 281 280 280 280 280 280 279 279 279 279 280 280 280 280 280 281 281 282 283 284 284 284 284 284 284 284 285 285 285 285 286 286 286 286 286 286 286 286 286 286 286 286 286 287 287 287 288 288 288 289
288 288 288 288 288 288 288 288 288 287 287 287 287 287 286 286 286 286 286 286 285 285 285 285 285 284 284 284 284 284 284 284 284 283 283 282 281 281 280 280 281 281 280 280 279 279 279 280 280 280 280 281 281 282 283 284 284 284 284 284 284 284 285 285 285 285 285 285 285 286 286 286 286 286 286 286 286 286 286 286 287 287 288 288 288 289
288 288 288 288 288 288 288 288 287 287 287 286 286 286 286 286 286 286 286 286 286 285 285 285 285 285 285 284 284 284 284 284 284 284 283 283 282 281 281 281 281 281 281 280 280 280 280 280 280 280 280 281 281 282 282 283 283 283 284 284 284 284 285 285 285 285 285 285 285 285 286 286 285 286 286 286 286 286 286 286 287 287 287 288 288 288
288 288 288 288 288 288 287 287 286 286 286 286 286 286 286 286 286 286 286 285 285 285 285 285 285 285 285 285 285 285 285 284 284 284 284 283 282 282 281 281 281 281 281 281 280 280 280 280 280 280 280 281 281 282 282 283 283 283 284 284 284 285 285 285 285 285 285 285 285 285 285 285 285 285 285 285 285 286 286 286 287 287 287 288 288 288
288 288 288 288 287 287 287 286 286 286 286 286 286 286 286 285 285 285 285 285 285 285 284 284 284 285 285 285 285 285 285 285 284 284 284 283 283 282 282 281 281 281 281 281 280 280 280 280 280 280 280 280 281 281 282 282 283 283 283 283 284 284 285 285 285 285 285 285 285 285 285 285 285 285 285 285 285 285 286 286 286 287 287 288 288 289
287 288 288 287 287 287 286 286 286 286 286 286 286 286 285 285 284 284 284 284 284 284 284 284 284 284 285 285 285 285 285 285 284 284 284 283 283 282 282 281 281 281 281 280 280 280 280 280 280 280 280 280 281 281 281 282 283 283 283 283 283 284 284 285 285 285 285 285 285 285 285 285 285 285 285 285 285 285 285 286 286 287 287 288 288 289
287 287 287 287 287 286 287 286 286 286 286 285 285 285 284 284 284 284 284 284 284 284 284 283 283 283 283 284 284 285 285 285 284 284 284 283 283 282 282 282 281 281 281 280 280 280 280 280 280 280 280 281 281 281 282 282 282 283 283 283 283 283 284 284 284 284 285 285 285 284 284 284 284 285 285 285 285 285 285 286 286 287 287 288 288 289
287 287 287 286 286 286 287 286 286 286 285 285 284 284 284 284 284 283 283 283 284 284 283 283 283 282 283 283 284 284 285 285 285 284 284 284 283 283 282 282 282 281 281 280 280 281 281 281 281 281 281 281 281 281 282 282 282 283 283 283 283 283 283 284 284 284 284 284 284 284 284 284 284 284 285 285 285 285 285 286 286 287 287 288 288 288
286 286 286 286 286 286 286 286 285 285 284 284 284 284 284 284 284 283 283 283 283 283 283 283 282 282 282 283 284 284 285 285 285 285 284 284 284 283 283 283 282 282 282 281 280 281 281 281 281 281 281 281 281 281 282 282 282 282 283 283 283 283 283 284 284 284 284 284 284 284 284 284 284 284 285 285 285 285 285 286 286 287 287 288 288 288
286 286 285 285 285 285 285 284 284 284 284 284 284 284 284 284 284 283 283 283 283 283 283 282 282 282 282 282 283 284 284 285 285 285 285 284 284 284 283 283 283 283 282 282 282 281 281 281 281 282 282 281 281 281 282 282 282 282 283 283 283 283 283 283 283 284 284 284 284 284 284 284 284 284 285 285 285 285 285 286 286 287 287 287 288 288
284 284 284 284 284 284 284 284 284 284 284 284 284 284 284 284 284 283 283 283 283 283 283 282 282 282 282 282 283 283 284 284 285 285 285 284 284 284 284 283 283 283 283 283 283 282 282 281 281 281 281 281 281 282 282 282 282 282 283 283 283 283 283 283 283 283 283 284 284 284 284 284 284 284 285 285 284 284 285 286 286 287 287 287 288 288
283 284 284 284 285 285 285 285 284 284 284 284 284 284 284 284 283 283 283 283 283 283 283 283 282 282 282 282 282 282 283 283 284 284 285 285 284 284 284 284 284 283 283 283 283 283 282 282 282 281 281 281 281 282 282 283 282 282 283 283 283 283 283 283 283 283 283 284 284 284 284 284 284 284 284 284 284 284 285 286 286 286 287 287 288 288
284 284 285 285 285 285 285 285 284 284 284 284 284 284 284 284 283 283 283 283 283 283 283 283 283 282 282 282 283 283 282 282 283 284 284 284 284 284 284 284 284 284 284 284 283 283 282 282 282 282 281 281 281 282 282 282 282 282 282 282 282 282 283 283 283 284 284 284 284 284 284 284 284 284 284 284 284 284 285 285 286 287 287 287 288 288
285 285 285 285 285 285 285 285 284 284 284 284 284 284 284 284 284 283 283 283 283 283 283 283 283 282 282 283 283 283 283 283 283 283 284 284 284 284 284 284 284 284 284 283 283 282 282 282 282 282 281 281 282 282 282 282 282 282 282 282 283 283 283 283 284 284 284 284 284 284 284 284 284 284 284 284 284 284 285 285 286 287 287 287 288 288
286 286 286 285 285 285 285 284 284 284 284 284 284 284 283 284 284 284 283 284 284 283 283 283 283 283 283 283 283 283 283 283 283 283 284 284 284 284 284 284 284 283 283 283 282 282 282 281 281 281 282 282 282 282 282 282 282 282 282 283 283 283 283 283 284 284 284 284 284 284 284 284 284 284 284 284 284 284 285 285 286 287 287 288 288 289
286 286 285 285 285 285 284 284 284 284 284 284 284 284 284 284 284 284 284 284 284 284 283 283 283 283 283 283 283 283 283 283 283 283 283 284 284 284 284 284 283 282 282 282 282 281 281 281 281 281 282 282 282 282 282 282 282 282 282 283 283 283 283 283 283 283 284 284 284 284 284 284 284 284 284 284 284 285 285 285 286 287 287 288 288 289
Wind_Speed
21 21 21 21 21 21 20 20 20 20 20 20 19 19 19 19 18 19 19 20 20 21 21 22 22 23 23 23 23 24 24 24 24 25 25 25 26 26 26 26 26 26 26 26 26 26 26 26 26 25 25 26 26 26 27 27 28 28 29 29 29 30 30 30 31 31 31 32 33 33 34 35 36 37 38 38 39 40 40 40 40 40 41 41 41 40
22 22 22 21 21 21 20 20 20 20 20 20 20 20 20 20 20 20 20 20 21 21 22 23 23 24 24 24 24 24 24 24 25 25 25 25 26 26 26 26 26 26 26 26 26 26 26 26 26 25 25 25 25 25 26 26 27 27 28 28 29 29 29 29 30 30 31 31 32 33 33 34 35 36 37 37 38 39 39 40 40 41 41 41 40 40
23 23 23 22 22 21 21 20 19 19 19 19 19 20 20 20 21 21 21 22 22 23 23 24 25 25 25 25 25 25 25 25 25 25 26 26 26 26 26 26 27 27 27 27 27 27 27 26 26 25 25 25 25 25 25 26 26 27 27 28 28 28 28 28 29 29 30 30 31 32 32 33 34 35 36 36 37 38 39 39 40 40 41 41 41 40
24 24 24 23 23 21 21 20 19 19 19 19 19 19 20 20 21 22 22 23 24 24 25 25 25 26 26 26 25 25 26 26 26 26 26 26 26 27 27 27 28 28 29 29 29 28 28 27 26 25 25 25 24 24 25 25 26 27 27 28 28 28 28 28 28 29 29 30 30 31 32 32 33 34 35 35 36 37 38 39 39 40 40 41 41 40
25 24 24 23 23 22 20 19 19 19 19 19 19 20 20 21 22 23 24 24 25 25 26 26 26 26 26 26 26 26 26 26 27 27 27 27 27 28 28 29 30 30 31 31 31 31 30 29 27 26 25 25 25 25 25 26 26 27 28 28 28 28 28 29 29 29 29 30 30 30 31 31 32 33 34 35 35 36 37 38 39 39 40 40 39 39
25 24 23 22 22 21 20 19 19 19 19 20 20 21 22 23 24 24 25 26 26 26 26 26 26 26 26 26 27 27 27 27 27 28 28 28 29 29 30 31 32 32 33 33 33 33 32 30 29 27 26 25 25 25 26 26 27 27 28 28 28 29 29 29 29 29 30 30 30 30 30 31 31 32 33 34 35 35 36 37 38 38 39 39 38 38
24 23 22 21 20 20 19 19 19 19 20 21 22 23 24 25 25 26 26 26 26 27 27 27 27 27 27 28 28 28 28 28 29 29 29 30 31 31 32 33 33 34 34 34 34 34 33 32 30 29 27 26 26 26 27 27 27 28 28 28 28 28 29 29 29 29 30 29 29 29 29 30 31 32 32 33 34 35 35 36 36 37 37 38 38 38
23 22 21 20 20 20 19 19 19 20 21 22 23 24 25 25 26 26 26 27 27 27 27 28 28 28 29 29 29 29 29 30 30 30 31 32 32 33 34 34 34 34 34 34 34 34 34 33 32 30 29 28 27 27 27 27 28 28 28 28 28 28 28 28 29 29 29 29 29 29 30 30 31 32 32 33 34 34 35 35 35 35 36 36 37 37
21 21 21 20 20 20 21 21 21 21 21 22 22 23 24 25 26 26 26 27 27 27 27 28 29 29 29 30 30 30 30 30 30 31 32 33 34 34 35 35 35 35 35 35 35 35 34 34 32 31 30 29 28 28 27 27 27 27 27 27 27 27 27 27 28 28 28 28 28 29 30 31 31 32 33 33 34 34 34 34 34 34 34 34 35 36
21 21 21 21 20 20 21 22 21 21 21 21 21 22 23 24 25 26 27 26 26 26 27 28 29 30 31 30 30 30 31 31 31 31 32 33 35 35 36 36 36 36 36 36 36 35 35 34 33 31 30 29 28 28 27 27 27 27 26 26 26 26 26 26 26 27 27 27 28 29 30 31 32 32 33 33 33 33 34 34 34 34 34 34 35 35
22 22 22 21 21 20 21 21 21 21 21 21 22 22 22 22 24 25 27 27 27 27 27 27 28 30 31 31 31 30 30 31 31 32 34 35 36 37 37 37 37 37 37 37 36 36 36 34 33 32 31 30 29 28 27 27 26 26 26 26 26 25 26 26 26 27 27 28 29 30 31 31 32 32 33 33 33 33 34 34 34 35 35 35 35 35
22 22 22 22 22 22 22 22 22 22 22 22 22 22 22 22 23 24 25 25 26 26 27 27 28 29 30 31 30 30 29 30 31 33 35 37 37 37 37 37 37 37 37 37 37 37 36 35 34 33 32 30 29 28 27 27 27 26 26 25 25 25 26 26 26 27 28 29 30 31 31 32 32 33 33 33 33 33 34 34 35 35 35 35 35 35
21 21 21 22 23 23 23 23 23 23 23 22 22 22 22 22 22 23 22 23 23 25 26 27 28 28 29 29 29 29 29 30 32 34 36 37 37 36 36 36 36 37 38 38 38 37 37 36 35 34 33 32 31 30 29 28 27 27 26 26 26 26 27 27 28 29 29 30 31 32 32 33 33 33 32 32 33 33 33 34 34 35 35 36 36 36
21 21 21 21 22 22 22 23 23 23 22 21 21 21 21 22 22 22 22 22 23 25 26 28 28 28 28 27 27 28 28 31 34 36 37 36 35 35 35 34 35 36 38 38 38 38 37 37 36 36 35 34 33 32 31 30 29 28 28 28 28 28 28 29 30 30 31 31 32 32 33 33 33 33 33 32 32 32 33 33 33 34 35 36 36 37
20 21 21 21 21 21 22 22 22 22 22 21 21 22 22 21 21 21 21 22 24 25 26 27 28 28 27 25 26 27 29 31 34 37 37 36 34 34 34 34 35 37 38 38 38 38 37 36 35 35 35 35 34 34 33 32 32 31 30 30 29 30 30 31 31 32 32 32 32 32 33 33 32 32 32 32 32 33 33 33 34 34 35 36 37 37
20 20 21 21 21 21 21 22 22 22 21 21 20 20 20 19 20 21 22 23 24 25 26 27 29 29 27 26 26 27 30 32 34 35 36 36 35 34 33 34 36 37 38 37 37 37 36 34 33 33 34 35 35 35 35 34 34 33 31 30 30 30 30 31 31 31 31 32 32 32 32 32 32 32 32 32 32 33 34 35 35 36 36 37 37 38
21 20 21 21 22 21 22 22 22 21 20 19 19 19 19 19 21 22 22 23 24 25 25 26 27 28 29 28 27 28 31 33 35 35 36 36 35 34 34 34 36 38 38 37 36 35 34 33 32 33 34 35 35 35 35 35 34 33 31 30 30 30 30 30 30 31 31 32 32 32 32 32 32 32 32 33 33 34 35 36 37 37 37 37 37 38
20 20 20 20 20 21 22 21 21 21 19 19 19 19 20 21 22 22 22 23 24 25 26 27 27 26 28 29 30 31 32 33 34 35 36 37 36 35 35 35 35 36 37 36 35 33 32 32 32 33 34 35 35 36 36 35 34 32 31 30 29 29 30 30 31 32 32 32 32 32 33 33 33 33 34 34 35 36 36 37 37 37 37 37 38 38
20 20 20 20 21 21 21 21 21 20 19 19 20 21 22 22 22 22 23 23 24 25 26 27 27 27 28 29 31 33 33 33 33 33 34 36 36 36 35 34 34 34 35 34 33 32 32 33 34 35 35 35 36 36 36 35 33 32 31 30 30 30 31 31 32 32 32 32 32 32 32 33 33 34 34 35 36 37 37 37 36 36 37 37 38 39
19 19 19 20 21 21 22 21 21 20 20 20 21 22 23 23 23 23 23 25 26 26 27 27 27 29 31 33 34 34 33 32 31 31 32 34 36 36 34 32 32 32 33 33 33 33 33 33 34 34 35 36 36 36 36 34 33 31 31 31 31 31 32 32 32 32 32 32 32 32 33 33 33 34 34 35 35 36 36 36 36 36 37 37 38 39
18 19 19 19 20 21 21 22 21 21 20 20 21 22 23 24 25 26 26 27 28 28 28 29 30 32 33 33 34 33 33 31 30 29 31 33 34 34 32 31 30 31 32 33 33 32 31 31 32 33 34 36 36 36 35 33 32 32 31 32 32 32 33 33 33 33 33 32 32 32 32 32 32 33 33 33 34 34 34 35 35 36 37 38 38 39
18 18 19 19 19 20 21 22 22 21 21 21 22 23 24 25 27 29 29 29 30 30 30 31 32 33 33 33 33 33 31 29 27 28 29 30 32 33 31 29 29 30 32 33 32 31 30 30 31 32 34 36 36 35 34 33 33 32 32 32 33 33 33 33 34 34 33 33 32 31 31 31 30 31 31 31 32 33 33 34 35 36 37 37 38 38
16 18 19 19 20 21 21 22 22 22 22 23 23 24 25 27 29 31 31 31 31 32 32 33 33 33 32 32 31 31 29 27 25 25 27 28 30 32 32 30 29 30 31 32 32 32 31 31 31 32 34 35 35 35 34 34 33 33 33 33 33 34 34 34 34 34 34 33 32 30 29 29 29 29 30 30 31 32 33 34 35 35 36 37 37 38
15 17 18 19 20 21 22 22 23 24 24 25 26 27 28 29 29 30 31 30 31 31 32 33 33 32 31 30 29 27 26 25 24 25 25 27 30 32 32 31 30 30 31 32 32 32 33 33 33 34 34 35 35 35 34 34 33 33 33 33 34 34 34 35 35 34 34 33 32 31 30 29 29 30 30 31 31 32 33 33 34 35 35 36 37 38
16 17 18 19 20 21 22 23 24 24 25 25 26 27 27 27 27 27 28 28 29 29 29 30 30 30 30 28 26 24 24 24 25 26 27 27 30 32 31 29 29 30 32 33 34 33 33 33 34 34 34 35 35 35 34 33 33 33 33 34 34 35 35 35 34 34 34 33 33 32 32 32 31 31 31 31 32 32 32 33 34 34 35 36 37 38
16 17 18 19 19 20 20 21 21 22 22 23 24 24 25 25 26 26 27 26 26 26 26 27 28 28 29 28 26 25 25 27 27 27 27 28 29 29 29 28 27 29 32 34 35 34 33 33 33 34 34 35 35 34 33 32 32 32 33 34 34 35 34 34 34 33 34 34 34 34 34 33 33 32 32 32 32 32 32 33 33 34 35 35 36 37
16 17 18 18 19 19 19 19 20 20 20 20 21 21 22 23 24 24 25 24 24 25 25 26 27 27 28 28 28 28 29 30 29 27 26 26 27 28 28 27 27 28 31 34 35 35 33 33 34 34 34 35 35 34 33 32 32 33 33 33 34 34 33 33 33 33 34 34 34 35 34 34 33 32 32 31 31 31 31 32 32 33 33 34 35 36
17 18 18 19 19 19 19 20 20 20 20 20 20 20 21 22 22 22 23 23 24 24 24 24 25 27 29 30 31 32 32 31 28 25 25 25 25 26 26 27 28 28 30 34 37 38 37 35 34 33 33 34 35 35 34 33 32 32 33 33 33 32 32 33 33 34 34 35 35 35 34 34 32 31 30 30 30 29 30 30 30 31 32 33 34 35
17 18 18 19 19 20 20 20 20 20 20 20 19 20 20 20 20 21 22 23 23 23 23 24 26 27 30 32 34 34 32 29 26 24 25 25 24 25 27 27 27 28 29 33 37 40 40 37 33 31 31 33 34 35 35 34 33 32 32 32 32 32 33 33 34 35 35 35 35 35 34 33 31 30 29 29 28 28 28 28 29 29 30 31 32 33
17 17 18 19 19 20 20 20 20 20 19 19 18 18 19 19 19 19 21 22 22 22 24 25 27 28 30 31 32 32 30 26 24 25 26 26 26 26 27 27 27 28 29 30 33 37 39 38 35 32 31 33 35 36 36 35 34 34 34 34 34 34 34 34 35 36 36 36 36 35 34 32 31 29 28 28 28 27 27 27 28 28 29 30 31 32
18 18 19 19 20 20 20 20 19 18 18 17 17 17 17 17 18 18 19 20 21 21 23 25 26 27 28 28 28 27 27 27 27 27 27 26 26 27 28 28 29 30 29 27 27 29 33 37 39 37 36 36 38 38 38 37 36 36 36 36 36 36 36 36 37 37 38 37 37 36 34 32 30 29 28 27 27 27 27 27 27 28 29 30 31 32
19 20 20 20 20 20 19 19 18 17 16 16 15 15 16 16 17 17 18 19 19 20 22 23 25 26 26 26 26 27 29 31 30 28 27 26 26 28 29 29 30 31 29 27 25 25 27 33 39 42 41 41 41 41 40 39 38 38 38 38 38 38 38 38 38 38 38 38 37 36 35 33 31 29 28 28 28 28 28 27 27 28 28 30 31 32
20 20 20 20 20 19 18 18 17 16 15 15 15 15 15 15 16 16 17 17 18 19 20 22 23 24 25 26 27 29 31 31 29 28 26 26 27 29 30 30 30 30 30 28 27 26 26 30 36 41 42 43 42 42 41 41 40 39 39 39 40 40 39 39 39 39 39 38 37 36 35 33 31 30 29 28 28 29 29 28 28 28 28 28 29 31
21 21 21 20 20 19 18 17 16 15 15 15 14 14 14 14 15 15 16 16 17 18 19 20 21 23 25 26 28 30 31 30 28 27 26 26 28 30 31 31 31 31 30 29 28 27 28 30 33 36 39 41 42 42 41 40 39 39 39 39 40 41 41 41 40 40 39 38 37 37 35 34 33 31 30 29 29 29 30 30 29 28 27 27 28 29
22 21 21 20 20 19 18 17 16 15 15 14 14 14 14 14 15 15 15 15 16 17 17 18 19 21 23 25 27 29 30 29 27 26 25 26 27 29 30 31 30 30 29 28 29 29 29 31 32 34 35 38 41 42 41 39 38 38 39 39 40 41 42 42 41 41 40 39 38 37 36 35 34 33 32 31 30 30 31 31 30 29 28 27 27 28
22 21 21 20 19 19 18 17 16 15 15 15 15 15 15 15 15 15 15 15 16 16 17 17 18 19 21 23 25 27 29 28 26 25 23 23 24 26 28 29 29 28 28 28 29 29 29 31 33 34 35 36 38 40 41 40 39 38 39 40 41 41 42 42 42 41 40 39 38 37 36 35 35 34 33 32 31 31 31 31 31 31 30 29 29 28
22 21 20 19 19 18 18 17 17 16 16 16 16 15 15 15 16 16 16 16 16 17 17 18 18 19 20 21 23 25 26 26 25 24 22 21 22 23 26 27 27 26 26 27 28 29 30 32 33 35 35 34 34 36 38 41 41 41 42 42 42 42 43 42 41 40 39 39 38 38 37 36 35 35 34 33 33 32 33 33 33 32 32 31 30 30
22 21 20 19 18 18 18 18 17 17 17 17 17 17 17 17 17 17 18 18 18 19 19 20 20 20 21 21 22 23 24 25 24 23 21 20 20 21 23 25 26 25 25 26 27 29 31 32 33 34 35 35 35 37 39 40 41 42 44 45 45 44 43 42 40 39 38 38 38 38 37 36 36 35 35 34 34 35 36 35 34 33 32 32 31 31
21 20 19 18 18 18 18 18 18 18 18 18 19 19 19 19 19 20 20 21 22 22 22 23 23 24 23 23 24 24 24 24 24 23 22 21 20 21 22 24 26 26 25 26 27 28 30 32 33 34 35 37 38 40 40 39 40 41 44 45 46 45 44 42 40 38 38 38 38 38 37 37 36 36 36 36 36 37 38 38 36 33 32 32 32 31
20 19 18 18 18 18 18 18 18 19 19 19 20 20 20 21 22 22 23 23 24 24 25 25 26 26 26 26 26 26 26 25 25 24 23 22 22 22 23 24 26 26 27 27 27 28 30 32 33 35 36 37 37 38 39 40 40 41 42 41 42 43 44 43 41 39 38 38 38 38 38 38 37 36 36 36 37 39 40 39 36 33 31 30 31 31
19 18 17 17 17 17 17 18 18 19 20 21 21 22 22 23 23 24 24 25 25 26 26 27 28 28 28 28 28 28 28 27 26 25 24 24 23 23 24 24 25 26 27 28 29 29 30 32 33 35 36 37 37 38 38 40 41 41 40 38 40 42 44 43 41 39 38 37 38 38 38 38 37 36 36 37 38 40 40 39 36 32 30 29 29 28
17 17 17 17 17 17 18 18 19 20 21 22 23 23 23 24 24 25 26 26 27 27 28 29 30 30 31 30 30 29 29 28 27 26 25 25 24 24 24 25 25 26 27 28 29 30 31 32 33 34 35 36 36 37 38 40 41 41 40 40 40 41 42 41 40 38 37 37 38 38 38 37 36 36 36 38 39 39 39 37 34 31 29 28 27 26
16 16 16 16 17 17 18 19 20 21 22 22 23 23 23 23 24 25 26 27 28 29 29 30 31 31 32 33 32 31 30 29 28 27 26 26 25 25 25 25 26 26 27 28 30 31 32 32 33 34 35 35 36 37 38 39 40 40 40 39 39 38 37 38 39 39 38 38 38 38 38 38 38 38 37 38 39 39 39 37 34 31 28 27 27 26
16 16 16 16 17 18 19 20 21 21 22 23 23 23 23 24 24 25 26 28 29 30 30 31 31 31 32 34 34 34 32 30 28 27 27 26 26 26 26 27 27 27 27 27 29 30 32 32 33 34 34 34 35 36 36 38 39 39 40 38 37 36 36 37 38 39 39 39 39 38 38 38 40 39 37 37 38 39 39 37 34 31 29 27 27 26
15 15 16 17 18 19 20 20 21 21 22 22 23 23 24 24 25 26 27 28 29 30 30 30 31 31 32 33 35 35 33 32 30 28 28 27 27 27 27 28 28 27 27 27 28 29 30 31 32 33 33 34 35 36 37 37 38 38 38 37 36 36 37 37 38 38 38 39 39 39 39 40 40 39 38 37 38 39 39 37 34 31 29 28 27 26
15 16 17 18 18 19 20 20 21 22 22 23 23 24 25 25 26 27 28 28 29 30 30 30 30 30 31 33 34 35 35 34 32 31 29 29 28 28 28 28 28 28 28 28 28 28 28 29 31 32 33 34 35 36 37 37 36 36 36 36 36 36 36 36 36 36 37 38 39 38 38 40 39 38 37 36 37 38 38 35 33 31 30 29 28 27
16 16 17 18 19 20 20 21 21 22 23 24 24 25 25 26 27 27 28 28 29 29 30 30 30 30 31 33 33 34 34 35 35 34 31 31 30 29 29 29 29 29 29 29 29 29 29 29 30 30 30 32 34 35 35 34 34 34 34 35 35 35 36 36 36 36 37 38 39 39 39 40 38 36 35 35 36 37 36 34 32 31 31 30 28 27
15 16 17 18 19 20 21 21 22 23 24 25 25 25 26 27 27 27 28 28 28 29 30 30 30 31 31 32 33 33 34 34 35 35 34 33 32 31 31 30 30 30 30 30 30 30 30 31 30 29 28 28 30 32 33 33 32 32 33 34 34 35 35 36 36 36 37 38 39 39 39 38 36 35 34 35 36 36 35 34 33 32 31 30 28 27
16 17 18 19 20 21 21 22 22 23 24 25 26 27 27 27 27 27 28 28 29 29 29 30 30 31 31 32 33 33 34 34 35 35 35 34 33 32 32 32 32 32 32 32 32 32 32 32 31 29 26 25 26 28 30 31 32 32 32 32 32 33 33 34 35 35 36 37 38 38 37 35 34 33 34 34 34 34 34 35 34 33 31 29 27 26
16 17 18 19 20 21 21 22 23 24 25 26 27 28 28 28 28 28 28 29 29 29 29 29 30 31 31 32 33 33 33 34 34 35 35 33 33 32 32 32 32 32 33 33 33 33 32 32 31 29 26 23 22 23 26 29 30 31 31 31 31 31 32 33 34 35 35 35 36 36 36 34 34 34 33 32 32 32 34 35 35 34 31 28 26 25
16 17 17 18 19 20 21 22 23 24 26 27 28 28 29 29 29 29 29 29 29 29 29 29 30 30 31 32 33 33 33 33 33 34 34 33 32 32 32 32 32 32 33 33 34 34 33 31 30 29 27 24 21 20 22 25 28 30 30 31 31 31 32 32 34 35 35 35 35 35 35 34 34 33 32 30 30 31 32 34 35 34 30 27 26 24
Wind_Direction
307 308 310 311 312 313 313 313 313 312 311 310 309 309 308 307 306 305 305 304 305 306 307 309 312 315 318 320 322 323 323 324 324 323 323 323 323 323 323 323 322 321 319 318 317 315 314 312 310 309 307 305 304 303 303 301 300 300 299 299 299 299 299 299 299 299 299 299 298 298 298 298 297 297 297 297 297 296 296 295 295 294 294 293 293 293
308 309 310 311 312 313 313 313 313 312 311 310 309 308 307 306 304 302 302 303 306 308 311 314 317 319 322 323 325 325 325 325 325 325 326 326 326 326 325 325 324 323 322 321 320 318 317 315 313 310 308 306 305 305 304 303 302 301 300 299 299 299 299 299 300 300 300 300 300 300 299 299 299 299 299 298 298 298 298 298 297 297 296 295 294 294
311 312 312 313 314 314 314 314 313 311 310 308 307 306 305 304 304 303 304 307 310 314 317 320 322 324 325 327 327 328 328 328 328 328 329 328 328 328 327 326 326 325 324 324 323 322 320 318 315 312 309 307 306 305 305 304 304 302 301 300 299 299 300 300 301 301 302 302 302 302 301 301 300 300 300 299 299 299 299 299 299 299 298 298 297 296
312 314 315 315 315 315 314 314 312 310 308 306 305 304 304 305 307 308 311 314 317 320 322 324 326 327 328 329 330 331 331 331 331 331 331 330 329 329 328 328 327 327 326 326 325 324 323 321 317 314 310 308 307 306 306 306 305 304 303 301 301 301 301 302 302 303 303 303 303 303 303 302 302 301 300 300 300 300 300 300 300 300 300 300 299 298
313 315 315 315 315 314 313 312 311 309 307 306 306 307 309 311 314 316 318 321 323 325 326 327 329 330 331 332 333 333 334 334 334 333 332 331 330 330 330 329 329 329 328 328 327 327 326 324 321 317 313 310 308 308 308 308 307 306 304 303 302 302 302 303 303 304 304 304 304 304 304 304 303 303 302 301 301 300 300 300 300 300 300 300 300 300
313 314 314 314 313 312 312 312 312 312 312 313 314 316 319 320 321 323 324 326 327 327 328 329 330 332 333 335 336 336 336 335 335 334 333 333 332 332 332 331 331 330 330 329 328 328 328 327 325 321 317 313 311 310 310 310 309 307 306 304 303 303 303 303 303 304 304 303 304 305 306 306 305 304 304 303 302 301 300 300 299 299 299 300 300 300
312 313 313 312 311 311 313 316 318 320 322 323 323 324 325 325 326 326 327 327 328 329 329 331 332 334 336 337 338 338 338 337 336 335 335 335 335 334 334 333 332 331 330 329 329 328 328 328 327 324 321 317 314 312 311 311 310 309 307 305 304 304 303 303 303 303 303 303 304 306 306 307 306 306 305 304 302 302 301 300 299 299 299 299 299 299
313 314 315 315 316 317 319 323 326 328 329 329 328 328 328 327 327 327 327 328 329 330 331 333 334 336 338 340 340 339 338 338 337 337 337 337 336 336 334 333 332 330 330 329 329 329 329 329 328 326 322 319 316 314 312 312 311 309 308 307 305 305 304 303 303 303 303 303 305 306 306 306 306 306 305 304 303 302 301 300 299 299 299 299 298 298
317 318 320 321 323 325 326 328 329 331 331 330 329 329 328 328 328 328 328 329 330 332 333 335 336 337 339 340 340 340 339 338 338 338 337 336 335 334 333 331 330 329 329 329 329 329 329 328 327 325 322 319 317 315 313 312 311 310 308 307 306 305 304 304 304 304 304 304 305 305 305 305 306 306 305 304 303 302 301 300 299 299 298 298 298 298
322 323 324 325 325 327 327 328 329 331 330 330 329 329 328 329 329 330 330 330 331 333 334 335 336 336 337 339 340 340 339 338 337 336 336 334 333 332 331 330 329 329 329 329 329 329 329 328 327 325 322 320 318 316 314 313 312 310 309 307 306 305 305 305 306 307 307 307 306 306 305 305 305 305 304 303 302 301 300 299 299 298 297 297 297 297
324 325 326 326 326 327 327 328 330 331 330 330 330 330 331 331 332 331 331 331 332 333 334 333 333 334 335 337 338 338 337 336 335 334 333 332 331 330 329 329 329 329 329 329 329 329 328 328 326 325 323 321 319 317 316 314 312 310 309 307 306 306 306 307 309 310 310 309 308 307 306 305 305 304 303 303 301 300 300 299 298 297 296 296 295 295
324 325 325 325 326 327 329 330 331 332 333 334 334 334 334 333 333 333 331 329 329 331 331 329 329 331 332 334 336 336 335 333 332 331 330 330 330 329 329 328 328 329 329 328 328 328 328 328 327 326 325 324 322 320 318 315 313 311 309 307 307 307 308 309 311 311 311 310 309 308 307 306 305 304 303 303 301 300 299 299 299 298 297 296 295 294
324 324 324 324 326 328 330 332 333 334 335 336 336 334 332 332 333 333 330 326 325 326 326 326 326 328 330 333 334 334 333 331 330 329 328 328 328 328 327 326 326 327 327 327 327 327 328 328 328 328 327 326 324 323 321 318 315 313 311 309 308 308 309 309 310 310 310 310 309 308 307 305 304 303 302 302 301 299 298 298 299 299 298 297 295 294
323 323 322 322 323 326 329 331 332 332 333 335 333 332 331 332 334 332 328 323 322 323 323 323 323 325 327 331 332 331 330 328 328 327 326 326 326 326 325 324 323 324 326 326 326 327 328 329 328 328 328 327 327 326 324 322 319 317 314 312 310 309 309 308 308 308 308 308 307 307 306 305 304 302 302 301 300 299 298 298 298 298 297 297 296 294
320 320 319 319 320 322 326 328 329 329 331 332 333 335 336 334 331 328 323 319 319 320 322 322 322 324 325 328 330 329 327 326 325 325 324 324 324 324 324 322 322 323 325 325 325 326 327 327 326 326 326 327 327 327 326 325 323 321 318 315 313 311 309 308 308 307 306 306 305 305 304 304 303 302 301 300 300 300 299 298 297 297 296 295 295 294
318 317 315 316 317 320 324 327 328 329 329 331 333 333 331 326 323 321 319 317 318 319 321 322 323 323 324 327 328 328 326 324 324 324 323 322 322 323 323 322 322 323 324 324 325 325 326 324 322 322 323 324 325 326 325 325 324 323 321 319 316 314 312 310 309 308 306 305 304 304 303 303 302 301 300 299 299 298 298 298 298 296 295 294 293 292
314 313 313 313 315 319 323 325 326 328 329 330 330 328 323 320 319 318 317 315 316 318 320 321 321 321 321 324 326 326 326 324 323 322 321 320 321 323 324 322 322 323 324 324 323 323 322 320 319 319 320 321 323 323 324 324 324 324 323 321 319 317 315 314 312 310 308 307 305 304 303 302 302 301 299 299 298 297 297 296 296 296 294 293 292 291
310 309 310 311 313 317 321 322 324 327 328 327 325 321 319 318 317 316 315 313 314 315 316 317 317 316 316 316 319 323 325 324 323 321 320 319 320 322 324 323 323 322 322 321 321 320 318 317 317 318 319 320 321 321 322 323 324 324 324 323 322 321 319 317 314 312 310 309 307 305 304 303 302 301 300 299 298 297 296 295 295 294 293 292 291 290
304 305 307 310 314 317 319 320 322 324 324 323 321 319 317 316 314 313 311 310 311 312 313 313 312 312 311 311 316 321 323 323 321 320 317 316 318 321 323 323 322 320 319 317 317 316 316 316 317 318 318 318 319 321 322 323 325 325 325 324 324 323 321 319 317 315 313 311 310 308 306 304 303 301 300 299 297 296 295 295 294 293 292 291 290 289
299 301 304 310 315 317 317 317 319 320 321 321 319 317 315 313 311 309 308 308 310 310 310 310 309 309 310 311 315 320 322 322 321 318 315 314 317 320 323 322 320 317 314 314 314 315 315 315 315 316 316 317 318 321 323 324 325 326 326 325 325 324 323 322 321 319 318 316 314 311 308 306 304 302 300 298 297 296 295 294 293 292 291 290 289 288
295 299 306 311 314 315 314 314 315 316 317 316 315 313 310 308 306 305 306 307 308 308 308 308 307 308 310 311 313 317 322 322 320 317 315 314 314 317 320 319 316 313 312 312 313 314 314 313 312 312 313 315 318 322 324 326 326 326 326 325 324 324 324 323 323 323 322 319 316 313 309 307 304 302 300 298 297 295 294 293 292 291 290 289 289 288
295 301 308 310 309 308 307 308 309 310 310 309 307 305 303 302 302 303 304 306 306 306 305 305 306 308 309 310 313 317 322 322 320 318 315 311 310 313 316 315 313 311 311 311 313 313 312 310 309 309 311 315 319 323 326 326 326 325 325 324 324 324 325 325 325 325 323 321 318 314 311 308 305 303 301 299 297 295 294 293 292 291 290 289 289 288
299 303 305 304 302 302 302 303 304 305 304 302 299 298 298 298 299 300 301 303 303 304 305 306 309 310 310 312 315 318 321 322 319 316 312 308 307 309 313 313 313 311 310 310 311 311 310 309 308 308 311 315 320 324 326 326 325 324 323 323 323 324 325 326 326 326 324 322 319 316 313 310 307 305 303 301 299 297 295 294 293 292 291 290 289 288
298 298 297 297 298 300 300 300 301 301 301 299 298 297 297 298 298 299 300 301 303 304 306 308 310 311 312 313 315 316 318 318 315 311 307 304 304 307 311 314 313 312 310 310 310 310 310 310 309 310 311 315 320 323 325 325 324 323 323 323 324 324 325 326 326 326 325 323 321 318 315 313 310 308 306 304 302 300 298 296 294 293 291 290 289 288
292 292 294 298 300 301 300 300 300 300 300 298 298 298 299 299 300 301 302 303 304 306 308 309 310 310 311 312 312 313 313 312 311 310 308 305 306 308 312 314 314 312 310 310 311 311 310 310 310 311 312 314 318 322 324 325 324 324 324 324 325 325 325 326 326 326 325 324 322 319 317 315 313 311 309 307 305 303 300 298 296 294 293 291 289 288
301 302 304 304 304 303 303 302 302 302 301 299 299 299 299 300 301 302 303 304 306 308 309 309 308 309 311 312 311 310 310 311 312 313 313 311 309 309 312 314 314 312 310 311 312 312 310 309 309 310 311 314 319 324 326 326 326 325 325 325 325 326 326 326 327 326 325 323 321 319 317 316 314 313 311 309 307 305 303 300 298 296 295 293 291 289
312 311 311 310 309 308 308 307 307 306 305 303 302 301 300 301 301 303 303 305 307 308 308 308 308 308 310 309 309 309 311 313 315 318 318 315 311 309 310 313 313 312 311 311 311 311 309 308 308 309 312 316 321 325 327 327 327 326 326 326 326 326 327 327 327 326 325 323 321 319 317 316 314 314 313 311 309 307 305 302 300 299 297 296 294 291
317 317 316 314 313 312 312 311 310 310 308 306 304 302 301 300 300 300 302 304 306 307 307 306 305 306 306 306 308 310 313 316 318 320 319 315 310 306 308 312 313 313 312 312 312 312 311 310 310 311 314 317 320 323 325 327 327 326 326 326 327 327 327 327 327 326 324 322 320 318 316 315 315 314 314 312 311 309 308 307 305 303 301 299 296 293
319 317 317 316 315 315 314 313 313 311 309 307 304 302 301 300 300 300 302 304 305 305 304 303 302 303 304 306 309 312 314 317 320 320 318 314 308 305 308 311 312 312 313 313 313 314 314 313 313 313 314 316 317 320 322 325 326 326 327 327 327 327 327 327 327 325 323 321 319 318 316 316 315 315 315 314 313 313 312 313 312 309 306 303 299 296
320 320 319 318 317 316 316 314 312 310 308 306 304 302 301 301 302 302 303 305 305 304 303 302 302 302 304 307 309 311 312 315 317 317 316 313 309 307 309 310 310 310 312 314 315 314 314 315 314 313 312 313 315 317 320 323 325 326 327 327 327 327 327 327 326 325 322 321 319 318 317 316 316 316 316 316 316 316 316 318 317 315 311 307 303 299
323 323 323 321 319 317 315 313 311 309 307 305 304 303 303 303 304 304 305 306 306 304 303 302 302 303 303 305 306 306 307 311 314 316 316 313 309 307 308 308 308 309 311 312 312 311 310 311 313 314 313 313 314 316 319 322 324 325 326 326 326 326 327 326 325 323 322 320 319 318 317 316 316 316 317 317 318 318 319 319 320 318 315 311 306 302
323 324 324 322 319 316 313 311 309 308 307 306 305 305 304 304 305 305 305 305 305 303 302 301 302 302 303 303 301 300 302 309 314 317 317 312 308 306 306 306 306 308 310 309 305 302 301 303 308 312 314 314 315 316 318 320 322 323 324 324 323 324 325 325 324 322 321 319 318 317 317 316 317 317 318 319 320 320 321 320 319 317 315 311 308 303
323 324 323 320 317 314 312 311 311 310 310 309 308 306 305 305 305 304 304 303 302 301 300 301 302 303 304 304 302 302 305 310 315 318 317 311 307 305 305 305 305 306 308 307 303 297 294 296 302 308 312 314 315 315 316 317 319 320 320 320 320 321 322 323 322 321 320 319 318 317 317 317 317 318 319 320 321 322 322 320 318 316 314 311 308 304
322 322 320 317 315 314 314 314 314 313 312 311 310 309 307 307 305 304 303 302 301 300 300 301 303 305 306 306 306 306 308 312 316 318 316 311 306 304 305 304 304 304 306 305 303 300 296 296 299 303 307 310 312 313 313 314 316 317 317 316 317 318 321 322 322 322 321 320 319 318 318 318 319 320 321 321 322 323 323 322 321 319 316 314 311 308
320 319 317 315 314 315 315 316 316 315 314 313 313 312 311 310 308 307 305 303 302 302 302 303 305 307 308 307 307 307 310 314 317 318 316 311 307 305 304 302 302 303 304 303 302 301 299 299 300 301 303 306 309 311 312 313 313 313 314 314 314 316 319 321 322 322 321 321 320 319 319 320 321 322 322 323 324 324 324 323 323 321 320 317 315 312
316 315 314 315 316 317 318 318 318 317 316 316 316 316 315 313 311 310 308 307 307 308 308 308 308 309 309 308 308 308 311 315 318 318 316 312 308 304 301 300 301 302 302 301 301 301 299 300 301 302 302 302 304 307 311 313 313 313 312 313 314 315 317 319 321 321 320 320 319 319 319 320 321 322 323 324 325 325 324 323 322 322 320 319 317 314
312 312 313 316 319 321 323 323 323 322 321 320 320 320 319 317 315 314 313 313 315 316 317 317 316 314 312 311 310 311 313 315 317 318 316 312 307 302 299 299 301 302 302 301 300 300 299 299 300 301 300 299 299 303 308 312 314 313 313 314 314 315 316 318 319 319 318 317 317 317 318 319 320 322 324 325 326 326 325 324 323 322 321 319 317 315
309 309 314 318 322 325 327 328 328 327 326 326 326 326 325 323 322 321 321 322 324 325 325 324 323 320 318 316 315 315 316 317 318 319 317 313 308 304 301 301 303 304 304 302 301 300 298 297 296 297 298 298 299 302 306 309 311 312 314 315 315 314 314 316 317 317 315 315 315 316 318 319 320 322 324 325 325 325 324 324 323 323 322 320 318 316
307 310 315 322 326 328 330 331 331 330 330 330 331 331 331 331 331 331 330 331 331 332 331 329 327 325 323 321 321 321 323 323 324 323 321 318 314 311 308 306 306 307 307 306 303 300 296 294 292 292 294 297 300 304 307 308 308 310 312 314 314 314 314 315 315 315 314 314 315 316 318 319 320 322 324 324 323 322 322 323 324 324 323 322 320 317
307 312 318 324 326 327 329 331 332 332 332 333 334 336 337 338 337 336 335 335 335 335 334 332 330 327 326 326 326 328 329 330 329 328 326 323 321 318 314 312 310 309 309 306 303 299 295 293 292 292 293 295 297 300 304 305 307 308 309 309 309 310 313 313 314 314 314 314 315 316 317 318 319 320 321 320 320 320 321 323 324 324 323 323 322 321
309 314 320 323 324 326 329 331 332 333 334 335 337 339 341 341 340 339 337 336 335 335 334 333 331 329 327 327 328 330 331 332 332 331 329 327 325 322 318 314 312 310 309 306 303 299 296 294 293 294 295 295 296 298 300 302 305 306 306 304 304 306 310 312 312 313 313 314 314 315 316 317 317 318 318 317 318 319 321 322 323 323 323 323 322 322
312 316 320 321 323 326 329 331 333 334 336 337 339 341 342 342 342 341 340 338 337 337 336 335 333 330 329 327 328 329 331 332 333 333 332 330 328 324 321 317 314 312 310 307 304 301 299 297 295 294 295 296 296 296 297 300 303 304 304 303 303 306 308 310 311 312 312 312 313 314 315 316 316 315 315 315 316 317 319 320 321 322 323 323 322 321
312 315 317 319 323 327 330 333 335 336 337 338 339 340 341 341 341 341 339 337 337 338 338 337 335 331 327 326 327 329 330 332 333 333 333 331 330 327 324 321 318 315 312 308 305 303 304 302 299 296 297 298 297 295 295 298 301 303 303 304 304 303 303 305 309 312 313 313 314 315 316 316 316 315 314 313 314 315 317 318 320 321 322 323 322 321
311 314 316 321 326 329 332 334 336 338 337 337 336 337 340 341 341 341 339 337 337 338 338 336 334 330 326 326 327 329 330 331 333 334 333 333 331 329 326 324 321 319 315 311 307 305 306 304 302 302 302 300 298 295 294 296 298 301 303 305 304 302 299 302 307 311 313 314 315 315 315 316 316 315 312 312 312 313 315 317 319 320 322 323 323 322
315 319 323 327 330 332 334 335 336 336 335 334 335 337 340 341 341 340 338 337 336 336 335 334 331 327 324 325 327 329 330 331 333 333 333 332 331 329 327 325 323 321 318 315 312 309 306 304 303 305 305 302 298 295 295 296 298 301 304 307 307 305 304 305 308 310 311 313 314 315 315 316 315 313 312 312 312 313 314 316 318 320 322 324 324 324
326 329 331 332 332 332 333 333 334 334 334 334 335 337 339 341 340 339 338 336 334 333 333 332 328 324 322 324 327 329 330 331 332 332 332 331 329 328 327 326 324 322 321 319 317 315 311 306 305 305 305 302 299 298 298 299 300 301 304 307 308 308 308 308 308 309 310 311 312 313 314 316 315 312 311 311 312 312 314 316 318 320 322 324 325 325
333 333 333 333 333 333 333 334 334 334 334 334 335 337 339 339 338 337 335 334 333 331 331 329 327 324 323 325 326 327 327 328 329 330 330 330 328 327 326 326 326 325 323 322 320 318 314 312 311 308 304 300 299 300 303 305 304 304 305 307 308 308 307 307 308 309 310 310 311 312 313 315 314 312 311 312 312 313 314 316 317 319 322 324 325 326
335 335 335 335 335 335 335 335 335 335 335 335 335 336 337 337 335 333 331 332 331 330 329 327 326 325 325 326 326 327 326 325 326 328 328 328 329 328 328 328 328 328 327 326 324 321 319 317 315 312 308 302 299 300 305 309 309 308 307 307 307 306 305 306 308 309 310 310 311 312 314 314 313 312 313 313 314 314 315 316 317 319 321 323 325 326
336 336 336 336 337 337 337 337 337 336 335 334 334 334 335 335 334 331 330 330 330 329 328 327 326 325 324 325 326 327 326 326 326 327 328 328 329 329 330 331 332 332 331 329 327 324 321 319 317 314 312 308 304 303 306 310 311 309 308 306 305 305 305 305 307 309 309 310 312 314 315 314 314 314 314 314 313 313 314 315 317 319 321 324 326 327
337 336 336 336 337 337 338 337 337 336 335 334 333 332 332 333 332 332 331 331 330 329 328 327 325 324 323 324 325 326 326 325 326 327 328 329 330 331 332 334 335 334 333 331 328 325 323 320 318 317 315 313 309 306 305 307 308 308 306 305 305 305 305 306 308 310 312 313 314 315 316 316 317 317 316 314 312 312 313 314 316 319 323 326 327 328
336 335 335 336 337 338 338 338 337 336 335 334 333 331 330 330 330 331 331 330 329 328 327 326 325 323 322 323 325 326 326 325 325 326 328 330 331 332 333 335 335 334 331 328 326 325 323 320 319 318 317 317 313 308 304 304 305 305 305 306 307 308 308 309 311 314 316 316 316 317 317 317 317 317 315 313 311 310 311 312 315 319 324 327 328 328